| time (UTC) | temp F | wind direction | speed MPH | gust MPH | rain 1hr in | rain 24hr in | rain mn in | humidity % | barometer mb |
| 20260506062324 | 51 | 147 | 0.0 | 1.0 | 0.00 | 0.31 | 0.01 | 98 | 1011.4 |
| 20260506061822 | 50 | 147 | 0.0 | 1.0 | 0.00 | 0.31 | 0.01 | 98 | 1011.3 |
| 20260506061322 | 49 | 73 | 0.0 | 1.0 | 0.00 | 0.31 | 0.01 | 98 | 1011.3 |
| 20260506060947 | 47 | 34 | 0.0 | 0.0 | 0.00 | 0.31 | 0.01 | 98 | 1011.4 |
| 20260506060919 | 47 | 34 | 0.0 | 1.0 | 0.00 | 0.31 | 0.01 | 98 | 1011.3 |
| 20260506051321 | 45 | 323 | 0.0 | 0.0 | 0.00 | 0.31 | 0.01 | 97 | 1010.9 |
| 20260506050821 | 45 | 324 | 0.0 | 0.0 | 0.00 | 0.31 | 0.01 | 97 | 1010.8 |
| 20260506050320 | 45 | 323 | 0.0 | 0.0 | 0.00 | 0.31 | 0.01 | 97 | 1010.8 |
| 20260506044819 | 45 | 300 | 0.0 | 0.0 | 0.00 | 0.31 | 0.01 | 97 | 1010.9 |
| 20260506044320 | 45 | 300 | 0.0 | 0.0 | 0.00 | 0.31 | 0.01 | 97 | 1010.9 |
| 20260506044128 | 46 | 300 | 0.0 | 0.0 | 0.00 | 0.31 | 0.01 | 97 | 1010.9 |
| 20260506043631 | 46 | 300 | 0.0 | 0.0 | 0.00 | 0.31 | 0.01 | 97 | 1010.9 |
| 20260506042819 | 46 | 300 | 0.0 | 0.0 | 0.00 | 0.31 | 0.01 | 97 | 1010.9 |
| 20260506042320 | 46 | 300 | 0.0 | 0.0 | 0.00 | 0.31 | 0.01 | 97 | 1010.8 |
| 20260506041832 | 46 | 300 | 0.0 | 0.0 | 0.00 | 0.31 | 0.01 | 97 | 1010.9 |
| 20260506041319 | 46 | 300 | 0.0 | 0.0 | 0.00 | 0.31 | 0.01 | 97 | 1010.8 |
| 20260506040820 | 46 | 300 | 0.0 | 0.0 | 0.01 | 0.31 | 0.01 | 97 | 1010.8 |
| 20260506040319 | 46 | 300 | 0.0 | 0.0 | 0.01 | 0.31 | 0.01 | 98 | 1010.9 |
| 20260506035820 | 46 | 300 | 0.0 | 0.0 | 0.01 | 0.31 | 0.01 | 98 | 1010.8 |
| 20260506035318 | 46 | 300 | 0.0 | 0.0 | 0.01 | 0.31 | 0.01 | 98 | 1010.8 |
| 20260506034820 | 45 | 300 | 0.0 | 0.0 | 0.01 | 0.31 | 0.01 | 97 | 1010.9 |
| 20260506034318 | 45 | 300 | 0.0 | 0.0 | 0.01 | 0.31 | 0.01 | 97 | 1010.8 |
| 20260506033820 | 45 | 300 | 0.0 | 0.0 | 0.01 | 0.31 | 0.01 | 97 | 1010.9 |
| 20260506033318 | 45 | 300 | 0.0 | 1.0 | 0.01 | 0.31 | 0.01 | 98 | 1010.9 |
| 20260506032816 | 45 | 300 | 0.0 | 1.0 | 0.01 | 0.31 | 0.01 | 98 | 1010.9 |
| 20260506032317 | 45 | 300 | 0.0 | 1.0 | 0.01 | 0.31 | 0.01 | 98 | 1010.9 |
| 20260506031817 | 45 | 87 | 0.0 | 0.0 | 0.01 | 0.31 | 0.01 | 97 | 1010.8 |
| 20260506031507 | 45 | 89 | 0.0 | 0.0 | 0.00 | 0.31 | 0.00 | 97 | 1010.8 |
| 20260506031432 | 45 | 87 | 0.0 | 0.0 | 0.01 | 0.31 | 0.01 | 97 | 1010.9 |
| 20260506030318 | 45 | 87 | 0.0 | 0.0 | 0.00 | 0.31 | 0.00 | 97 | 1010.9 |
| 20260506025818 | 45 | 89 | 0.0 | 0.0 | 0.00 | 0.31 | 0.00 | 97 | 1010.9 |
| 20260506025316 | 45 | 87 | 0.0 | 0.0 | 0.00 | 0.31 | 0.00 | 97 | 1010.9 |
| 20260506024816 | 45 | 87 | 0.0 | 0.0 | 0.00 | 0.31 | 0.00 | 97 | 1010.9 |
| 20260506024316 | 45 | 87 | 0.0 | 0.0 | 0.00 | 0.31 | 0.00 | 97 | 1011.0 |
| 20260506023817 | 45 | 87 | 0.0 | 0.0 | 0.00 | 0.31 | 0.00 | 97 | 1010.9 |
| 20260506023622 | 45 | 87 | 0.0 | 0.0 | 0.00 | 0.31 | 0.00 | 97 | 1011.0 |
| 20260506022817 | 45 | 87 | 0.0 | 0.0 | 0.00 | 0.31 | 0.00 | 97 | 1011.0 |
| 20260506022329 | 45 | 87 | 0.0 | 0.0 | 0.00 | 0.31 | 0.00 | 97 | 1010.9 |
| 20260506021818 | 45 | 89 | 0.0 | 0.0 | 0.00 | 0.31 | 0.00 | 97 | 1010.9 |
| 20260506021316 | 45 | 87 | 0.0 | 0.0 | 0.00 | 0.31 | 0.00 | 97 | 1010.9 |
| 20260506021122 | 46 | 87 | 0.0 | 0.0 | 0.00 | 0.31 | 0.00 | 97 | 1010.8 |
| 20260506020315 | 46 | 87 | 0.0 | 0.0 | 0.00 | 0.31 | 0.00 | 97 | 1010.8 |
| 20260506015816 | 46 | 87 | 0.0 | 0.0 | 0.00 | 0.31 | 0.00 | 97 | 1010.8 |
| 20260506015315 | 46 | 89 | 0.0 | 0.0 | 0.00 | 0.31 | 0.00 | 97 | 1010.8 |
| 20260506014814 | 46 | 87 | 0.0 | 0.0 | 0.00 | 0.31 | 0.00 | 97 | 1010.9 |
| 20260506014317 | 46 | 87 | 0.0 | 0.0 | 0.00 | 0.31 | 0.00 | 97 | 1010.9 |
| 20260506013815 | 46 | 87 | 0.0 | 0.0 | 0.00 | 0.31 | 0.00 | 97 | 1010.8 |
| 20260506013316 | 46 | 87 | 0.0 | 0.0 | 0.00 | 0.31 | 0.00 | 97 | 1010.9 |
| 20260506012815 | 46 | 87 | 0.0 | 0.0 | 0.00 | 0.31 | 0.00 | 97 | 1010.9 |
| 20260506012315 | 46 | 87 | 0.0 | 0.0 | 0.00 | 0.31 | 0.00 | 97 | 1010.9 |
| 20260506011815 | 46 | 87 | 0.0 | 0.0 | 0.00 | 0.31 | 0.00 | 97 | 1010.9 |
| 20260506011314 | 46 | 87 | 0.0 | 0.0 | 0.00 | 0.31 | 0.00 | 97 | 1010.9 |
| 20260506010828 | 46 | 87 | 0.0 | 0.0 | 0.00 | 0.31 | 0.00 | 97 | 1011.0 |
| 20260506010316 | 46 | 87 | 0.0 | 0.0 | 0.00 | 0.31 | 0.00 | 97 | 1011.0 |
| 20260506005816 | 46 | 87 | 0.0 | 0.0 | 0.00 | 0.31 | 0.00 | 97 | 1011.1 |
| 20260506005619 | 46 | 87 | 0.0 | 0.0 | 0.00 | 0.31 | 0.00 | 97 | 1011.2 |
| 20260506004815 | 47 | 89 | 0.0 | 0.0 | 0.00 | 0.31 | 0.00 | 97 | 1011.2 |
| 20260506004623 | 47 | 87 | 0.0 | 0.0 | 0.00 | 0.31 | 0.00 | 97 | 1011.3 |
| 20260506003817 | 47 | 87 | 0.0 | 0.0 | 0.00 | 0.31 | 0.00 | 97 | 1011.2 |
| 20260506003314 | 47 | 87 | 0.0 | 0.0 | 0.00 | 0.31 | 0.00 | 97 | 1011.2 |
| 20260506002813 | 48 | 87 | 0.0 | 1.0 | 0.00 | 0.31 | 0.00 | 97 | 1011.2 |
| 20260506002313 | 48 | 87 | 0.0 | 1.0 | 0.00 | 0.31 | 0.00 | 97 | 1011.3 |
| 20260506001813 | 48 | 87 | 0.0 | 1.0 | 0.00 | 0.31 | 0.00 | 97 | 1011.3 |
| 20260506001316 | 48 | 94 | 0.0 | 0.0 | 0.00 | 0.31 | 0.00 | 97 | 1011.3 |
| 20260506000814 | 48 | 94 | 0.0 | 0.0 | 0.00 | 0.31 | 0.00 | 97 | 1011.5 |
| 20260506000314 | 48 | 94 | 0.0 | 0.0 | 0.00 | 0.31 | 0.00 | 97 | 1011.6 |
| 20260505235814 | 48 | 94 | 0.0 | 1.0 | 0.00 | 0.31 | 0.00 | 97 | 1011.6 |
| 20260505235621 | 48 | 94 | 0.0 | 1.0 | 0.00 | 0.31 | 0.00 | 97 | 1011.8 |
| 20260505234814 | 49 | 94 | 0.0 | 0.0 | 0.00 | 0.31 | 0.00 | 97 | 1011.8 |
| 20260505234313 | 49 | 94 | 0.0 | 0.0 | 0.00 | 0.31 | 0.00 | 97 | 1011.9 |
| 20260505233813 | 49 | 94 | 0.0 | 0.0 | 0.00 | 0.31 | 0.00 | 97 | 1011.9 |
| 20260505233449 | 49 | 94 | 0.0 | 0.0 | 0.00 | 0.31 | 0.00 | 97 | 1012.0 |
| 20260505233414 | 49 | 94 | 0.0 | 0.0 | 0.00 | 0.31 | 0.00 | 97 | 1011.9 |
| 20260505232621 | 49 | 94 | 0.0 | 0.0 | 0.00 | 0.31 | 0.00 | 97 | 1011.9 |
| 20260505231813 | 49 | 94 | 0.0 | 0.0 | 0.00 | 0.31 | 0.00 | 97 | 1012.0 |
| 20260505231311 | 49 | 94 | 0.0 | 0.0 | 0.00 | 0.31 | 0.00 | 97 | 1012.0 |
| 20260505230811 | 49 | 94 | 0.0 | 0.0 | 0.00 | 0.31 | 0.00 | 97 | 1011.9 |
| 20260505230314 | 49 | 94 | 0.0 | 0.0 | 0.00 | 0.31 | 0.00 | 97 | 1012.0 |
| 20260505230121 | 49 | 94 | 0.0 | 0.0 | 0.00 | 0.31 | 0.00 | 97 | 1011.9 |
| 20260505225617 | 48 | 94 | 0.0 | 0.0 | 0.00 | 0.31 | 0.00 | 97 | 1012.0 |
| 20260505224811 | 48 | 94 | 0.0 | 0.0 | 0.00 | 0.31 | 0.00 | 97 | 1012.0 |
| 20260505224313 | 48 | 94 | 0.0 | 0.0 | 0.00 | 0.31 | 0.00 | 97 | 1012.1 |
| 20260505223958 | 48 | 94 | 0.0 | 0.0 | 0.00 | 0.31 | 0.00 | 97 | 1012.0 |
| 20260505223919 | 48 | 94 | 0.0 | 0.0 | 0.00 | 0.31 | 0.00 | 97 | 1012.1 |
| 20260505222811 | 48 | 94 | 0.0 | 0.0 | 0.00 | 0.31 | 0.00 | 97 | 1012.0 |
| 20260505222631 | 48 | 94 | 0.0 | 0.0 | 0.00 | 0.31 | 0.00 | 97 | 1012.1 |
| 20260505222625 | 48 | 94 | 0.0 | 0.0 | 0.00 | 0.31 | 0.00 | 97 | 1012.1 |
| 20260505222620 | 48 | 94 | 0.0 | 0.0 | 0.00 | 0.31 | 0.00 | 97 | 1012.2 |
| 20260505220813 | 48 | 94 | 0.0 | 0.0 | 0.00 | 0.31 | 0.00 | 97 | 1012.2 |
| 20260505220310 | 49 | 94 | 0.0 | 0.0 | 0.00 | 0.31 | 0.00 | 97 | 1012.2 |
| 20260505215812 | 49 | 94 | 0.0 | 0.0 | 0.00 | 0.31 | 0.31 | 97 | 1012.2 |
| 20260505215311 | 49 | 94 | 0.0 | 0.0 | 0.00 | 0.31 | 0.31 | 97 | 1012.3 |
| 20260505214809 | 49 | 94 | 0.0 | 0.0 | 0.00 | 0.31 | 0.31 | 97 | 1012.3 |
| 20260505214459 | 49 | 94 | 0.0 | 0.0 | 0.00 | 0.31 | 0.31 | 97 | 1012.3 |
| 20260505214418 | 49 | 94 | 0.0 | 0.0 | 0.00 | 0.31 | 0.31 | 97 | 1012.2 |
| 20260505213627 | 49 | 94 | 0.0 | 0.0 | 0.00 | 0.31 | 0.31 | 97 | 1012.3 |
| 20260505213129 | 49 | 94 | 0.0 | 0.0 | 0.00 | 0.31 | 0.31 | 97 | 1012.2 |
| 20260505212311 | 49 | 94 | 0.0 | 0.0 | 0.00 | 0.31 | 0.31 | 97 | 1012.3 |
| 20260505211810 | 49 | 94 | 0.0 | 0.0 | 0.00 | 0.31 | 0.31 | 97 | 1012.2 |
| 20260505211637 | 49 | 94 | 0.0 | 0.0 | 0.00 | 0.31 | 0.31 | 97 | 1012.3 |
| 20260505210810 | 49 | 94 | 0.0 | 0.0 | 0.00 | 0.31 | 0.31 | 97 | 1012.4 |
| 20260505210310 | 49 | 94 | 0.0 | 0.0 | 0.00 | 0.31 | 0.31 | 97 | 1012.2 |
| 20260505205811 | 49 | 94 | 0.0 | 0.0 | 0.00 | 0.31 | 0.31 | 97 | 1012.2 |
| 20260505205309 | 49 | 94 | 0.0 | 0.0 | 0.00 | 0.31 | 0.31 | 97 | 1012.2 |
| 20260505204811 | 49 | 94 | 0.0 | 0.0 | 0.00 | 0.31 | 0.31 | 97 | 1012.3 |
| 20260505204310 | 49 | 94 | 0.0 | 0.0 | 0.00 | 0.31 | 0.31 | 96 | 1012.2 |
| 20260505203813 | 49 | 94 | 0.0 | 0.0 | 0.00 | 0.31 | 0.31 | 96 | 1012.1 |
| 20260505203537 | 49 | 94 | 0.0 | 0.0 | 0.00 | 0.31 | 0.31 | 96 | 1012.0 |
| 20260505203441 | 49 | 94 | 0.0 | 0.0 | 0.00 | 0.31 | 0.31 | 96 | 1012.1 |
| 20260505202425 | 49 | 94 | 0.0 | 0.0 | 0.00 | 0.31 | 0.31 | 96 | 1012.0 |
| 20260505201312 | 49 | 94 | 0.0 | 0.0 | 0.00 | 0.31 | 0.31 | 96 | 1011.8 |
| 20260505200809 | 49 | 94 | 0.0 | 0.0 | 0.00 | 0.31 | 0.31 | 96 | 1011.8 |
| 20260505200448 | 50 | 94 | 0.0 | 0.0 | 0.00 | 0.31 | 0.31 | 96 | 1011.9 |
| 20260505200414 | 50 | 94 | 0.0 | 0.0 | 0.00 | 0.31 | 0.31 | 96 | 1011.9 |
| 20260505195309 | 50 | 94 | 0.0 | 0.0 | 0.00 | 0.31 | 0.31 | 96 | 1011.8 |
| 20260505194810 | 50 | 94 | 0.0 | 0.0 | 0.00 | 0.31 | 0.31 | 96 | 1011.9 |
| 20260505194314 | 50 | 94 | 0.0 | 0.0 | 0.00 | 0.31 | 0.31 | 96 | 1011.8 |
| 20260505193809 | 50 | 94 | 0.0 | 0.0 | 0.00 | 0.31 | 0.31 | 96 | 1011.8 |
| 20260505193310 | 50 | 94 | 0.0 | 0.0 | 0.00 | 0.31 | 0.31 | 96 | 1011.9 |
| 20260505192808 | 50 | 94 | 0.0 | 1.0 | 0.00 | 0.31 | 0.31 | 96 | 1011.9 |
| 20260505192306 | 50 | 94 | 0.0 | 1.0 | 0.00 | 0.31 | 0.31 | 96 | 1011.8 |
| 20260505192008 | 50 | 94 | 0.0 | 0.0 | 0.00 | 0.31 | 0.31 | 96 | 1011.6 |
| 20260505191921 | 50 | 94 | 0.0 | 1.0 | 0.00 | 0.31 | 0.31 | 96 | 1011.8 |
| 20260505190809 | 51 | 94 | 0.0 | 0.0 | 0.00 | 0.31 | 0.31 | 95 | 1011.6 |
| 20260505190308 | 51 | 94 | 0.0 | 0.0 | 0.00 | 0.32 | 0.31 | 95 | 1011.6 |
| 20260505190134 | 51 | 94 | 0.0 | 0.0 | 0.00 | 0.33 | 0.31 | 95 | 1011.4 |
| 20260505185306 | 51 | 94 | 0.0 | 0.0 | 0.00 | 0.34 | 0.31 | 95 | 1011.4 |
| 20260505184806 | 51 | 94 | 0.0 | 0.0 | 0.00 | 0.34 | 0.31 | 95 | 1011.3 |
| 20260505184454 | 52 | 94 | 0.0 | 0.0 | 0.00 | 0.35 | 0.31 | 95 | 1011.3 |
| 20260505184416 | 51 | 94 | 0.0 | 0.0 | 0.00 | 0.35 | 0.31 | 95 | 1011.3 |
| 20260505183307 | 52 | 94 | 0.0 | 0.0 | 0.00 | 0.35 | 0.31 | 95 | 1011.3 |
| 20260505183121 | 53 | 94 | 0.0 | 0.0 | 0.00 | 0.36 | 0.31 | 95 | 1011.3 |
| 20260505182452 | 53 | 94 | 0.0 | 0.0 | 0.00 | 0.37 | 0.31 | 95 | 1011.4 |
| 20260505182414 | 53 | 94 | 0.0 | 0.0 | 0.00 | 0.37 | 0.31 | 95 | 1011.3 |
| 20260505181456 | 54 | 94 | 0.0 | 0.0 | 0.00 | 0.38 | 0.31 | 95 | 1011.2 |
| 20260505181414 | 53 | 94 | 0.0 | 0.0 | 0.00 | 0.38 | 0.31 | 95 | 1011.4 |
| 20260505180304 | 54 | 94 | 0.0 | 0.0 | 0.00 | 0.39 | 0.31 | 95 | 1011.2 |
| 20260505175807 | 54 | 94 | 0.0 | 0.0 | 0.00 | 0.39 | 0.31 | 95 | 1011.2 |
| 20260505175305 | 54 | 94 | 0.0 | 0.0 | 0.00 | 0.40 | 0.31 | 95 | 1011.2 |
| 20260505174807 | 55 | 94 | 0.0 | 1.0 | 0.00 | 0.42 | 0.31 | 95 | 1011.2 |
| 20260505174304 | 55 | 94 | 0.0 | 1.0 | 0.00 | 0.43 | 0.31 | 95 | 1011.2 |
| 20260505174120 | 55 | 116 | 0.0 | 1.0 | 0.00 | 0.46 | 0.31 | 96 | 1011.2 |
| 20260505173304 | 55 | 116 | 0.0 | 1.0 | 0.00 | 0.47 | 0.31 | 96 | 1011.3 |
| 20260505172803 | 55 | 116 | 0.0 | 1.0 | 0.00 | 0.49 | 0.31 | 96 | 1011.3 |
| 20260505172306 | 55 | 116 | 0.0 | 1.0 | 0.01 | 0.50 | 0.31 | 96 | 1011.2 |
| 20260505171804 | 55 | 116 | 0.0 | 1.0 | 0.02 | 0.52 | 0.31 | 96 | 1011.3 |
| 20260505171305 | 55 | 104 | 0.0 | 1.0 | 0.02 | 0.55 | 0.31 | 96 | 1011.4 |
| 20260505170804 | 54 | 104 | 0.0 | 1.0 | 0.02 | 0.62 | 0.31 | 96 | 1011.5 |
| 20260505170304 | 54 | 104 | 0.0 | 1.0 | 0.03 | 0.69 | 0.31 | 96 | 1011.5 |
| 20260505165804 | 54 | 104 | 0.0 | 1.0 | 0.03 | 0.80 | 0.31 | 95 | 1011.5 |
| 20260505165455 | 54 | 110 | 0.0 | 0.0 | 0.04 | 0.85 | 0.31 | 95 | 1011.5 |
| 20260505165417 | 54 | 104 | 0.0 | 1.0 | 0.04 | 0.84 | 0.31 | 95 | 1011.4 |
| 20260505164303 | 53 | 110 | 0.0 | 1.0 | 0.04 | 0.85 | 0.31 | 95 | 1011.6 |
| 20260505163804 | 53 | 110 | 0.0 | 1.0 | 0.05 | 0.85 | 0.31 | 95 | 1011.6 |
| 20260505163303 | 53 | 80 | 0.0 | 1.0 | 0.06 | 0.85 | 0.31 | 95 | 1011.6 |
| 20260505162805 | 53 | 80 | 0.0 | 1.0 | 0.07 | 0.85 | 0.31 | 95 | 1011.8 |
| 20260505162302 | 53 | 80 | 0.0 | 1.0 | 0.07 | 0.84 | 0.30 | 95 | 1011.6 |
| 20260505161805 | 53 | 78 | 0.0 | 1.0 | 0.07 | 0.83 | 0.29 | 95 | 1011.5 |
| 20260505161302 | 53 | 78 | 0.0 | 1.0 | 0.08 | 0.83 | 0.29 | 95 | 1011.8 |
| 20260505161120 | 52 | 298 | 0.0 | 0.0 | 0.07 | 0.83 | 0.28 | 95 | 1011.8 |
| 20260505160303 | 52 | 298 | 0.0 | 0.0 | 0.07 | 0.82 | 0.28 | 95 | 1011.9 |
| 20260505153302 | 52 | 303 | 1.0 | 3.0 | 0.14 | 0.81 | 0.25 | 93 | 1011.8 |
| 20260505152802 | 52 | 289 | 1.0 | 2.0 | 0.16 | 0.80 | 0.24 | 93 | 1011.8 |
| 20260505152304 | 53 | 290 | 0.0 | 2.0 | 0.18 | 0.80 | 0.23 | 93 | 1011.9 |
| 20260505151800 | 53 | 312 | 0.0 | 1.0 | 0.20 | 0.79 | 0.22 | 93 | 1011.9 |
| 20260505151302 | 53 | 82 | 0.0 | 2.0 | 0.20 | 0.78 | 0.21 | 93 | 1012.0 |
| 20260505150802 | 53 | 83 | 0.0 | 3.0 | 0.20 | 0.78 | 0.21 | 93 | 1012.0 |
| 20260505150300 | 53 | 58 | 0.0 | 3.0 | 0.20 | 0.77 | 0.20 | 93 | 1012.0 |
| 20260505130258 | 64 | 302 | 2.0 | 5.0 | 0.00 | 1.43 | 0.01 | 62 | 1010.3 |
| 20260505124758 | 64 | 285 | 1.0 | 6.0 | 0.00 | 1.43 | 0.01 | 65 | 1010.4 |
| 20260505124258 | 64 | 329 | 2.0 | 6.0 | 0.00 | 1.43 | 0.01 | 64 | 1010.4 |
| 20260505123757 | 64 | 226 | 2.0 | 5.0 | 0.00 | 1.43 | 0.01 | 68 | 1010.5 |
| 20260505123258 | 64 | 303 | 1.0 | 4.0 | 0.00 | 1.43 | 0.01 | 64 | 1010.5 |
| 20260505122757 | 64 | 66 | 1.0 | 4.0 | 0.00 | 1.43 | 0.01 | 71 | 1010.6 |
| 20260505122256 | 64 | 298 | 1.0 | 3.0 | 0.00 | 1.43 | 0.01 | 71 | 1010.7 |
| 20260505121915 | 64 | 306 | 2.0 | 5.0 | 0.00 | 1.43 | 0.01 | 67 | 1010.8 |
| 20260505121848 | 63 | 307 | 0.0 | 5.0 | 0.00 | 1.43 | 0.01 | 71 | 1010.7 |
| 20260505120758 | 64 | 345 | 0.0 | 2.0 | 0.00 | 1.43 | 0.01 | 70 | 1010.7 |
| 20260505120256 | 64 | 93 | 0.0 | 3.0 | 0.00 | 1.43 | 0.01 | 70 | 1010.7 |
| 20260505115757 | 63 | 292 | 0.0 | 4.0 | 0.00 | 1.43 | 0.01 | 69 | 1010.8 |
| 20260505115255 | 62 | 303 | 1.0 | 5.0 | 0.00 | 1.43 | 0.01 | 77 | 1010.9 |
| 20260505114756 | 62 | 295 | 0.0 | 5.0 | 0.00 | 1.43 | 0.01 | 72 | 1010.9 |
| 20260505114257 | 62 | 282 | 1.0 | 5.0 | 0.00 | 1.43 | 0.01 | 71 | 1010.9 |
| 20260505114103 | 63 | 276 | 0.0 | 3.0 | 0.00 | 1.43 | 0.01 | 72 | 1010.9 |
| 20260505113558 | 63 | 278 | 0.0 | 3.0 | 0.00 | 1.43 | 0.01 | 69 | 1011.0 |
| 20260505113104 | 63 | 300 | 0.0 | 2.0 | 0.00 | 1.43 | 0.01 | 72 | 1011.1 |
| 20260505112257 | 62 | 309 | 0.0 | 4.0 | 0.00 | 1.43 | 0.01 | 76 | 1011.2 |
| 20260505111755 | 62 | 290 | 1.0 | 4.0 | 0.00 | 1.43 | 0.01 | 71 | 1011.1 |
| 20260505111436 | 61 | 312 | 2.0 | 5.0 | 0.00 | 1.43 | 0.01 | 74 | 1011.2 |
| 20260505111403 | 62 | 193 | 0.0 | 3.0 | 0.00 | 1.43 | 0.01 | 76 | 1011.2 |
| 20260505110254 | 62 | 289 | 1.0 | 5.0 | 0.00 | 1.43 | 0.01 | 73 | 1011.4 |
| 20260505101754 | 63 | 21 | 0.0 | 2.0 | 0.00 | 1.43 | 0.01 | 73 | 1011.8 |
| 20260505101254 | 63 | 282 | 0.0 | 2.0 | 0.00 | 1.43 | 0.01 | 75 | 1011.6 |
| 20260505100753 | 62 | 86 | 0.0 | 2.0 | 0.00 | 1.43 | 0.01 | 74 | 1011.6 |
| 20260505100254 | 62 | 275 | 0.0 | 2.0 | 0.00 | 1.43 | 0.01 | 79 | 1011.8 |
| 20260505095753 | 61 | 214 | 0.0 | 1.0 | 0.00 | 1.43 | 0.01 | 80 | 1011.8 |
| 20260505095606 | 60 | 87 | 0.0 | 1.0 | 0.00 | 1.43 | 0.01 | 82 | 1011.8 |
| 20260505094753 | 60 | 89 | 0.0 | 3.0 | 0.00 | 1.43 | 0.01 | 80 | 1011.8 |
| 20260505094255 | 60 | 116 | 0.0 | 3.0 | 0.00 | 1.43 | 0.01 | 82 | 1011.8 |
| 20260505093752 | 59 | 209 | 0.0 | 2.0 | 0.00 | 1.43 | 0.01 | 82 | 1011.8 |
| 20260505093253 | 59 | 296 | 0.0 | 2.0 | 0.00 | 1.43 | 0.01 | 85 | 1011.9 |
| 20260505092754 | 58 | 113 | 0.0 | 2.0 | 0.00 | 1.43 | 0.01 | 83 | 1011.9 |
| 20260505092557 | 58 | 216 | 0.0 | 3.0 | 0.00 | 1.43 | 0.01 | 86 | 1011.8 |
| 20260505092100 | 58 | 285 | 0.0 | 3.0 | 0.00 | 1.43 | 0.01 | 85 | 1011.9 |
| 20260505091252 | 58 | 289 | 0.0 | 1.0 | 0.00 | 1.43 | 0.01 | 86 | 1011.8 |
| 20260505090753 | 58 | 324 | 0.0 | 1.0 | 0.00 | 1.43 | 0.01 | 87 | 1011.8 |
| 20260505090251 | 58 | 316 | 0.0 | 1.0 | 0.00 | 1.43 | 0.01 | 90 | 1011.9 |
| 20260505085752 | 57 | 78 | 0.0 | 0.0 | 0.00 | 1.43 | 0.01 | 90 | 1011.9 |
| 20260505085252 | 57 | 78 | 0.0 | 2.0 | 0.00 | 1.43 | 0.01 | 89 | 1011.9 |
| 20260505084752 | 57 | 78 | 0.0 | 2.0 | 0.00 | 1.43 | 0.01 | 88 | 1011.9 |
| 20260505084252 | 57 | 18 | 0.0 | 1.0 | 0.00 | 1.43 | 0.01 | 92 | 1011.9 |
| 20260505083751 | 56 | 302 | 0.0 | 1.0 | 0.00 | 1.43 | 0.01 | 93 | 1011.9 |
| 20260505083252 | 56 | 302 | 0.0 | 1.0 | 0.00 | 1.43 | 0.01 | 93 | 1011.9 |
| 20260505082751 | 55 | 292 | 0.0 | 2.0 | 0.00 | 1.43 | 0.01 | 92 | 1011.9 |
| 20260505082557 | 55 | 290 | 0.0 | 2.0 | 0.00 | 1.43 | 0.01 | 93 | 1011.9 |
| 20260505081752 | 55 | 298 | 0.0 | 1.0 | 0.00 | 1.43 | 0.01 | 94 | 1011.9 |
| 20260505081250 | 55 | 281 | 0.0 | 1.0 | 0.00 | 1.43 | 0.01 | 95 | 1011.9 |
| 20260505080751 | 55 | 350 | 0.0 | 1.0 | 0.00 | 1.43 | 0.01 | 95 | 1011.9 |
| 20260505080250 | 55 | 350 | 0.0 | 1.0 | 0.00 | 1.43 | 0.01 | 95 | 1011.9 |
| 20260505075752 | 55 | 324 | 0.0 | 0.0 | 0.00 | 1.43 | 0.01 | 96 | 1011.8 |
| 20260505075250 | 55 | 324 | 0.0 | 2.0 | 0.00 | 1.43 | 0.01 | 96 | 1011.9 |
| 20260505074751 | 54 | 323 | 0.0 | 2.0 | 0.00 | 1.43 | 0.01 | 95 | 1011.9 |
| 20260505074249 | 54 | 94 | 0.0 | 2.0 | 0.00 | 1.43 | 0.01 | 96 | 1011.8 |
| 20260505073751 | 54 | 296 | 0.0 | 1.0 | 0.00 | 1.43 | 0.01 | 95 | 1011.9 |
| 20260505073249 | 55 | 298 | 0.0 | 1.0 | 0.00 | 1.43 | 0.01 | 96 | 1011.9 |
| 20260505072751 | 54 | 299 | 0.0 | 3.0 | 0.00 | 1.43 | 0.01 | 95 | 1012.0 |
| 20260505072251 | 54 | 303 | 1.0 | 3.0 | 0.00 | 1.43 | 0.01 | 95 | 1012.0 |
| 20260505071749 | 55 | 309 | 0.0 | 2.0 | 0.00 | 1.43 | 0.01 | 96 | 1012.0 |
| 20260505071250 | 55 | 299 | 0.0 | 2.0 | 0.00 | 1.43 | 0.01 | 97 | 1012.0 |
| 20260505070908 | 55 | 213 | 0.0 | 1.0 | 0.00 | 1.43 | 0.01 | 97 | 1012.1 |
| 20260505070840 | 55 | 272 | 0.0 | 2.0 | 0.00 | 1.43 | 0.01 | 97 | 1012.0 |
| 20260505065749 | 54 | 213 | 0.0 | 1.0 | 0.00 | 1.43 | 0.01 | 96 | 1012.0 |
| 20260505065553 | 54 | 290 | 0.0 | 1.0 | 0.00 | 1.43 | 0.01 | 97 | 1012.0 |
| 20260505065054 | 54 | 138 | 0.0 | 2.0 | 0.00 | 1.43 | 0.01 | 97 | 1012.0 |
| 20260505064247 | 55 | 138 | 0.0 | 2.0 | 0.00 | 1.43 | 0.01 | 98 | 1012.0 |
| 20260505063749 | 55 | 106 | 0.0 | 3.0 | 0.00 | 1.43 | 0.01 | 98 | 1011.9 |